Location: *
(44.1392°N, 4.8079°E)
Time: 13:33:28
(UTC+00:00)

Meteor 2-19 Rocket - Pass Details

Date: 31 October 2021
Orbit: 935 x 959 km, 82.5° (Epoch: 08 December)

Event Time Altitude Azimuth Distance (km) Brightness Sun altitude
Rises 19:47:38 0° 357° (N) 3,613 7.7 -35.4°
Reaches altitude 10° 19:50:17 10° 4° (N) 2,662 6.9 -35.9°
Enters shadow 19:50:18 10° 4° (N) 2,651 6.9 -35.9°
